�������l�o���
Date,Time,MP-1(��Sv/h),MP-2(��Sv/h),MP-3(��Sv/h),MP-4(��Sv/h),MP-5(��Sv/h),MP-6(��Sv/h),MP-7(��Sv/h),MP-8(��Sv/h),����,����(m/s),���J
2018/07/11,00:00,0.872,1.256,0.870,1.552,1.094,0.479,0.830,0.787,�k,1.2,��
2018/07/11,00:10,0.871,1.252,0.867,1.551,1.096,0.480,0.828,0.787,�k,1.2,��
2018/07/11,00:20,0.873,1.252,0.867,1.551,1.096,0.479,0.830,0.787,�k��,1.1,��
2018/07/11,00:30,0.874,1.250,0.869,1.551,1.096,0.479,0.830,0.788,�k��,0.8,��
2018/07/11,00:40,0.873,1.253,0.867,1.553,1.098,0.479,0.830,0.786,���k��,1.2,��
2018/07/11,00:50,0.873,1.249,0.867,1.551,1.093,0.478,0.830,0.786,��,1.2,��
2018/07/11,01:00,0.873,1.251,0.870,1.554,1.097,0.479,0.828,0.786,��,0.9,��
2018/07/11,01:10,0.873,1.252,0.869,1.550,1.097,0.479,0.829,0.786,���쓌,1.2,��
2018/07/11,01:20,0.871,1.250,0.870,1.550,1.096,0.478,0.829,0.789,��,1.2,��
2018/07/11,01:30,0.871,1.251,0.869,1.552,1.096,0.480,0.829,0.788,���쓌,1.2,��
2018/07/11,01:40,0.871,1.251,0.871,1.552,1.099,0.478,0.829,0.787,���쓌,1.7,��
2018/07/11,01:50,0.871,1.249,0.868,1.550,1.096,0.480,0.830,0.788,��쓌,1.2,��
2018/07/11,02:00,0.874,1.251,0.867,1.552,1.097,0.478,0.831,0.788,��쓌,1.4,��
2018/07/11,02:10,0.872,1.253,0.868,1.550,1.095,0.479,0.829,0.788,��,1.4,��
2018/07/11,02:20,0.874,1.252,0.871,1.551,1.098,0.478,0.827,0.787,��쐼,1.5,��
2018/07/11,02:30,0.874,1.252,0.868,1.553,1.096,0.478,0.831,0.788,��,1.5,��
2018/07/11,02:40,0.873,1.250,0.868,1.552,1.096,0.481,0.830,0.788,��쓌,1.2,��
2018/07/11,02:50,0.874,1.251,0.867,1.551,1.097,0.478,0.830,0.787,��쐼,1.2,��
2018/07/11,03:00,0.873,1.249,0.869,1.551,1.095,0.479,0.829,0.788,��,1.5,��
2018/07/11,03:10,0.872,1.249,0.868,1.551,1.096,0.479,0.829,0.789,��쐼,2.0,��
2018/07/11,03:20,0.875,1.250,0.866,1.548,1.096,0.479,0.830,0.788,��쐼,2.4,��
2018/07/11,03:30,0.871,1.249,0.871,1.551,1.098,0.479,0.832,0.787,��쐼,1.7,��
2018/07/11,03:40,0.874,1.251,0.868,1.551,1.096,0.478,0.829,0.787,�쐼,1.4,��
2018/07/11,03:50,0.874,1.251,0.871,1.554,1.094,0.479,0.831,0.788,��,1.5,��
2018/07/11,04:00,0.871,1.251,0.868,1.549,1.097,0.478,0.832,0.788,��쐼,0.8,��
2018/07/11,04:10,0.871,1.251,0.868,1.552,1.095,0.478,0.830,0.787,�쐼,0.9,��
2018/07/11,04:20,0.871,1.248,0.868,1.550,1.094,0.478,0.832,0.789,�쐼,1.2,��
2018/07/11,04:30,0.875,1.250,0.867,1.549,1.097,0.480,0.830,0.790,���쐼,2.3,��
2018/07/11,04:40,0.870,1.250,0.868,1.552,1.097,0.478,0.830,0.788,���쐼,2.3,��
2018/07/11,04:50,0.873,1.252,0.869,1.550,1.096,0.479,0.830,0.790,���쐼,2.1,��
2018/07/11,05:00,0.872,1.249,0.866,1.547,1.096,0.479,0.830,0.788,���쐼,1.7,��
2018/07/11,05:10,0.871,1.250,0.869,1.550,1.098,0.478,0.829,0.788,�쐼,1.7,��
2018/07/11,05:20,0.871,1.250,0.869,1.552,1.096,0.477,0.829,0.789,���쐼,2.5,��
2018/07/11,05:30,0.872,1.250,0.868,1.553,1.095,0.479,0.829,0.788,���쐼,2.6,��
2018/07/11,05:40,0.873,1.250,0.868,1.551,1.096,0.477,0.828,0.789,���쐼,2.6,��
2018/07/11,05:50,0.872,1.250,0.867,1.553,1.096,0.479,0.831,0.788,���쐼,2.2,��
2018/07/11,06:00,0.871,1.249,0.868,1.553,1.094,0.480,0.828,0.788,���쐼,1.7,��
2018/07/11,06:10,0.872,1.251,0.868,1.554,1.095,0.478,0.830,0.789,��,2.0,��
2018/07/11,06:20,0.874,1.250,0.865,1.551,1.097,0.480,0.829,0.788,���k��,2.3,��
2018/07/11,06:30,0.873,1.248,0.867,1.551,1.098,0.478,0.832,0.789,���k��,1.5,��
2018/07/11,06:40,0.872,1.249,0.868,1.550,1.096,0.478,0.830,0.787,�k��,1.9,��
2018/07/11,06:50,0.874,1.251,0.869,1.552,1.096,0.478,0.830,0.788,�k��,3.7,��
2018/07/11,07:00,0.873,1.249,0.866,1.552,1.093,0.480,0.830,0.787,�k��,4.9,��
2018/07/11,07:10,0.872,1.247,0.867,1.551,1.097,0.479,0.830,0.788,�k��,2.8,��
2018/07/11,07:20,0.872,1.247,0.868,1.551,1.097,0.476,0.831,0.788,�k�k��,2.5,��
2018/07/11,07:30,0.872,1.249,0.869,1.549,1.097,0.479,0.831,0.788,�k�k��,3.0,�L
2018/07/11,07:40,0.873,1.252,0.868,1.550,1.095,0.477,0.830,0.790,�k�k��,1.4,�L
2018/07/11,07:50,0.872,1.250,0.868,1.551,1.098,0.476,0.832,0.790,�k�k��,1.2,��
2018/07/11,08:00,0.874,1.249,0.868,1.552,1.097,0.479,0.832,0.788,�k��,1.5,��
2018/07/11,08:10,0.874,1.249,0.870,1.551,1.098,0.480,0.833,0.788,�k��,1.5,��
2018/07/11,08:20,0.872,1.251,0.870,1.553,1.094,0.480,0.831,0.788,�k��,3.4,��
2018/07/11,08:30,0.873,1.251,0.868,1.552,1.097,0.481,0.833,0.788,�k��,3.9,��
2018/07/11,08:40,0.878,1.252,0.868,1.554,1.097,0.478,0.831,0.788,�k��,3.8,��
2018/07/11,08:50,0.874,1.250,0.869,1.555,1.095,0.479,0.833,0.788,�k��,3.0,��
2018/07/11,09:00,0.877,1.249,0.869,1.552,1.098,0.478,0.833,0.790,�k��,3.7,��
2018/07/11,09:10,0.875,1.249,0.869,1.555,1.097,0.479,0.834,0.788,�k��,3.9,��
2018/07/11,09:20,0.873,1.248,0.869,1.553,1.098,0.479,0.833,0.789,�k��,3.7,��
2018/07/11,09:30,0.876,1.249,0.870,1.554,1.098,0.479,0.834,0.786,���k��,3.2,��
2018/07/11,09:40,0.873,1.251,0.869,1.556,1.097,0.480,0.833,0.787,��,2.9,��
2018/07/11,09:50,0.878,1.251,0.867,1.556,1.096,0.478,0.832,0.788,��,3.2,��
2018/07/11,10:00,0.877,1.251,0.868,1.556,1.096,0.477,0.833,0.787,���k��,4.4,��
2018/07/11,10:10,0.878,1.254,0.870,1.558,1.098,0.480,0.831,0.786,���k��,4.0,��
2018/07/11,10:20,0.875,1.249,0.869,1.556,1.098,0.477,0.832,0.787,���k��,4.2,��
2018/07/11,10:30,0.875,1.250,0.870,1.556,1.100,0.478,0.832,0.788,���k��,4.8,��
2018/07/11,10:40,0.878,1.250,0.869,1.557,1.098,0.479,0.831,0.790,���k��,4.8,��
2018/07/11,10:50,0.877,1.249,0.871,1.559,1.099,0.480,0.833,0.788,���k��,4.1,��
2018/07/11,11:00,0.877,1.252,0.871,1.559,1.098,0.480,0.832,0.787,���k��,3.2,��
2018/07/11,11:10,0.878,1.254,0.869,1.558,1.099,0.479,0.833,0.790,��,4.2,��
2018/07/11,11:20,0.879,1.257,0.871,1.562,1.102,0.478,0.833,0.789,��,3.2,��
2018/07/11,11:30,0.877,1.254,0.871,1.557,1.102,0.476,0.835,0.788,��,4.2,��
2018/07/11,11:40,0.881,1.257,0.872,1.555,1.102,0.480,0.832,0.788,���k��,4.7,��
2018/07/11,11:50,0.881,1.259,0.871,1.558,1.104,0.478,0.834,0.789,���k��,4.4,��
2018/07/11,12:00,0.880,1.258,0.871,1.557,1.101,0.478,0.833,0.788,��,4.5,��
2018/07/11,12:10,0.881,1.258,0.872,1.559,1.107,0.478,0.834,0.789,��,3.3,��
2018/07/11,12:20,0.880,1.259,0.872,1.564,1.104,0.478,0.833,0.788,��,4.3,��
2018/07/11,12:30,0.881,1.258,0.871,1.565,1.103,0.478,0.834,0.789,��,3.3,��
2018/07/11,12:40,0.882,1.259,0.873,1.561,1.104,0.477,0.833,0.789,���k��,3.9,��
2018/07/11,12:50,0.880,1.258,0.872,1.565,1.105,0.479,0.833,0.789,�k��,2.9,��
2018/07/11,13:00,0.879,1.259,0.873,1.566,1.104,0.480,0.835,0.788,�k�k��,1.9,��
2018/07/11,13:10,0.879,1.258,0.872,1.564,1.103,0.481,0.832,0.789,�k,2.5,��
2018/07/11,13:20,0.879,1.255,0.873,1.563,1.105,0.482,0.833,0.788,�k,2.6,��
2018/07/11,13:30,0.880,1.255,0.873,1.561,1.106,0.479,0.833,0.788,�k�k��,2.6,��
2018/07/11,13:40,0.879,1.253,0.873,1.560,1.105,0.478,0.832,0.788,���k��,2.6,��
2018/07/11,13:50,0.879,1.254,0.871,1.563,1.107,0.479,0.830,0.788,���쓌,2.8,��
2018/07/11,14:00,0.880,1.252,0.871,1.561,1.106,0.478,0.831,0.787,���쓌,2.2,��
2018/07/11,14:10,0.879,1.254,0.873,1.563,1.108,0.479,0.832,0.787,�쓌,3.2,��
2018/07/11,14:20,0.878,1.255,0.873,1.561,1.105,0.479,0.832,0.789,���쓌,2.3,��
2018/07/11,14:30,0.879,1.259,0.875,1.563,1.106,0.479,0.833,0.789,�쓌,1.2,��
2018/07/11,14:40,0.880,1.258,0.876,1.561,1.108,0.478,0.833,0.788,�쓌,2.0,��
2018/07/11,14:50,0.880,1.259,0.873,1.563,1.104,0.479,0.833,0.788,���쓌,1.9,��
2018/07/11,15:00,0.878,1.259,0.873,1.562,1.107,0.480,0.834,0.788,��,3.4,��
2018/07/11,15:10,0.878,1.258,0.873,1.564,1.106,0.480,0.833,0.789,���k��,5.1,��
2018/07/11,15:20,0.880,1.258,0.872,1.563,1.107,0.480,0.833,0.790,���k��,4.2,��
2018/07/11,15:30,0.877,1.260,0.872,1.563,1.105,0.479,0.835,0.788,���k��,4.7,��
2018/07/11,15:40,0.878,1.260,0.873,1.564,1.107,0.478,0.836,0.787,���k��,5.6,��
2018/07/11,15:50,0.877,1.260,0.871,1.566,1.104,0.479,0.834,0.786,���k��,3.4,��
2018/07/11,16:00,0.878,1.259,0.870,1.561,1.105,0.478,0.834,0.788,�k��,2.8,��
2018/07/11,16:10,0.878,1.259,0.872,1.561,1.105,0.478,0.833,0.789,�k��,2.5,��
2018/07/11,16:20,0.876,1.261,0.872,1.562,1.104,0.479,0.832,0.789,���k��,1.9,��
2018/07/11,16:30,0.877,1.258,0.872,1.563,1.102,0.478,0.834,0.791,���k��,1.2,��
2018/07/11,16:40,0.878,1.259,0.873,1.565,1.104,0.478,0.833,0.788,�k,1.4,��
2018/07/11,16:50,0.878,1.260,0.872,1.562,1.105,0.479,0.832,0.787,-,CALM,��
2018/07/11,17:00,0.878,1.262,0.873,1.562,1.106,0.478,0.830,0.789,��쓌,1.2,��
2018/07/11,17:10,0.876,1.259,0.872,1.562,1.105,0.477,0.832,0.788,�쓌,1.5,��
2018/07/11,17:20,0.879,1.259,0.873,1.562,1.105,0.479,0.833,0.786,�쓌,0.9,��
2018/07/11,17:30,0.879,1.258,0.873,1.563,1.105,0.479,0.832,0.788,�k��,1.2,��
2018/07/11,17:40,0.878,1.262,0.875,1.564,1.107,0.480,0.831,0.788,-,CALM,��
2018/07/11,17:50,0.879,1.264,0.872,1.564,1.107,0.480,0.830,0.786,-,CALM,��
2018/07/11,18:00,0.879,1.261,0.875,1.565,1.106,0.481,0.831,0.789,���쓌,0.9,��
2018/07/11,18:10,0.876,1.259,0.871,1.563,1.106,0.480,0.830,0.786,���쓌,1.7,��
2018/07/11,18:20,0.878,1.261,0.874,1.563,1.106,0.481,0.832,0.787,���쓌,1.2,��
2018/07/11,18:30,0.877,1.261,0.874,1.566,1.105,0.480,0.831,0.788,���쓌,1.1,��
2018/07/11,18:40,0.879,1.259,0.874,1.564,1.104,0.479,0.833,0.788,��쓌,0.9,��
2018/07/11,18:50,0.877,1.262,0.872,1.566,1.104,0.481,0.830,0.789,��,0.6,��
2018/07/11,19:00,0.878,1.261,0.873,1.564,1.105,0.480,0.832,0.788,-,CALM,��
2018/07/11,19:10,0.879,1.259,0.873,1.561,1.105,0.480,0.833,0.785,��쓌,1.5,��
2018/07/11,19:20,0.878,1.259,0.874,1.563,1.105,0.480,0.832,0.788,�쓌,2.3,��
2018/07/11,19:30,0.879,1.260,0.875,1.563,1.108,0.479,0.833,0.789,��쓌,2.3,��
2018/07/11,19:40,0.878,1.262,0.873,1.565,1.103,0.478,0.833,0.788,�쓌,2.2,��
2018/07/11,19:50,0.877,1.262,0.872,1.564,1.106,0.479,0.832,0.788,��쓌,2.0,��
2018/07/11,20:00,0.877,1.261,0.874,1.564,1.104,0.479,0.833,0.788,���쓌,2.6,��
2018/07/11,20:10,0.878,1.261,0.874,1.564,1.105,0.478,0.832,0.790,��,2.6,��
2018/07/11,20:20,0.880,1.262,0.874,1.563,1.104,0.478,0.833,0.789,��,3.1,��
2018/07/11,20:30,0.877,1.261,0.874,1.565,1.106,0.479,0.832,0.789,��쐼,2.6,��
2018/07/11,20:40,0.877,1.261,0.874,1.563,1.105,0.478,0.832,0.788,��,1.9,��
2018/07/11,20:50,0.878,1.258,0.874,1.563,1.105,0.480,0.832,0.788,��쐼,1.4,�L
2018/07/11,21:00,0.879,1.262,0.874,1.564,1.107,0.481,0.833,0.788,��,2.0,�L
2018/07/11,21:10,0.878,1.261,0.872,1.563,1.104,0.479,0.834,0.789,��쐼,1.4,�L
2018/07/11,21:20,0.877,1.260,0.873,1.563,1.105,0.479,0.832,0.790,��,2.0,�L
2018/07/11,21:30,0.877,1.263,0.873,1.561,1.105,0.480,0.831,0.788,��쓌,1.0,�L
2018/07/11,21:40,0.878,1.259,0.872,1.565,1.105,0.479,0.832,0.789,�쐼,1.9,��
2018/07/11,21:50,0.877,1.258,0.874,1.565,1.105,0.480,0.833,0.786,�쐼,2.0,��
2018/07/11,22:00,0.877,1.258,0.873,1.564,1.104,0.479,0.832,0.788,��쐼,2.8,��
2018/07/11,22:10,0.878,1.260,0.872,1.564,1.103,0.481,0.833,0.789,��쐼,3.2,��
2018/07/11,22:20,0.876,1.259,0.874,1.565,1.107,0.480,0.832,0.788,��쐼,3.3,��
2018/07/11,22:30,0.875,1.259,0.873,1.562,1.104,0.480,0.834,0.789,��,2.5,��
2018/07/11,22:40,0.875,1.260,0.874,1.563,1.104,0.477,0.834,0.788,���쓌,3.2,�L
2018/07/11,22:50,0.876,1.260,0.874,1.562,1.101,0.479,0.832,0.788,���쓌,3.3,�L
2018/07/11,23:00,0.873,1.260,0.875,1.565,1.106,0.480,0.832,0.786,��,3.2,�L
2018/07/11,23:10,0.875,1.261,0.875,1.561,1.106,0.477,0.831,0.788,�k��,2.8,�L
2018/07/11,23:20,0.875,1.260,0.873,1.565,1.103,0.478,0.832,0.789,�k�k��,3.5,�L
2018/07/11,23:30,0.874,1.259,0.873,1.563,1.105,0.479,0.832,0.788,�k,3.2,��
2018/07/11,23:40,0.875,1.262,0.874,1.563,1.104,0.480,0.831,0.788,�k�k��,3.0,��
2018/07/11,23:50,0.875,1.257,0.872,1.561,1.103,0.479,0.832,0.788,�k,3.8,��
